QFA443 YMML-YBBN

Flight info

Callsign QFA443
Flight time 1h 48m
Altitude 33000
Route NONIX H66 LAGOB DCT BLAKA
Aircraft A306/H-SDE3FGHIRWY/LB1

Departure

Time 2026-05-08 06:15
Airport Melbourne Airport (YMML)

Arrival

Time 2026-05-08 08:03
Airport Brisbane International Airport (YBBN)
Time Latitude Longitude Altitude Speed Heading
2026-05-08 05:30 -37.66929 144.84586 401 ft 0 kts
2026-05-08 05:52 -37.66942 144.84584 401 ft 2 kts
2026-05-08 05:52 -37.66957 144.84584 401 ft 2 kts
2026-05-08 05:52 -37.66967 144.84584 401 ft 2 kts 358°
2026-05-08 05:52 -37.66981 144.84589 401 ft 2 kts 333°
2026-05-08 05:53 -37.66993 144.84599 401 ft 2 kts 313°
2026-05-08 05:53 -37.67002 144.84615 402 ft 2 kts 292°
2026-05-08 05:53 -37.67005 144.84633 403 ft 2 kts 272°
2026-05-08 05:53 -37.67005 144.84644 403 ft 1 kts 261°
2026-05-08 05:54 -37.67005 144.84647 403 ft 0 kts 261°
2026-05-08 06:04 -37.67006 144.84636 403 ft 4 kts 261°
2026-05-08 06:04 -37.67014 144.84555 399 ft 13 kts 264°
2026-05-08 06:04 -37.67040 144.84424 394 ft 14 kts 253°
2026-05-08 06:04 -37.67057 144.84331 390 ft 9 kts 262°
2026-05-08 06:05 -37.67043 144.84267 390 ft 6 kts 311°
2026-05-08 06:05 -37.67017 144.84244 391 ft 3 kts 335°
2026-05-08 06:05 -37.66993 144.84233 391 ft 4 kts 345°
2026-05-08 06:05 -37.66953 144.84224 392 ft 7 kts 352°
2026-05-08 06:06 -37.66891 144.84212 393 ft 9 kts 351°
2026-05-08 06:06 -37.66830 144.84201 394 ft 8 kts 351°
2026-05-08 06:06 -37.66776 144.84190 395 ft 7 kts 352°
2026-05-08 06:06 -37.66720 144.84209 396 ft 10 kts 44°
2026-05-08 06:07 -37.66688 144.84312 397 ft 15 kts 79°
2026-05-08 06:07 -37.66670 144.84453 400 ft 16 kts 82°
2026-05-08 06:07 -37.66654 144.84589 403 ft 14 kts 81°
2026-05-08 06:07 -37.66640 144.84708 406 ft 12 kts 80°
2026-05-08 06:08 -37.66607 144.84786 410 ft 9 kts 36°
2026-05-08 06:08 -37.66535 144.84796 410 ft 12 kts 344°
2026-05-08 06:08 -37.66453 144.84778 410 ft 5 kts 358°
2026-05-08 06:08 -37.66442 144.84778 410 ft 0 kts
2026-05-08 06:10 -37.66433 144.84779 411 ft 3 kts
2026-05-08 06:10 -37.66392 144.84781 412 ft 8 kts
2026-05-08 06:11 -37.66349 144.84786 412 ft 0 kts
2026-05-08 06:13 -37.66346 144.84786 412 ft 1 kts
2026-05-08 06:13 -37.66322 144.84787 413 ft 4 kts 359°
2026-05-08 06:13 -37.66282 144.84781 414 ft 7 kts 343°
2026-05-08 06:14 -37.66231 144.84732 414 ft 12 kts 302°
2026-05-08 06:14 -37.66217 144.84666 413 ft 0 kts 275°
2026-05-08 06:14 -37.66215 144.84642 413 ft 11 kts 275°
2026-05-08 06:15 -37.66199 144.84323 416 ft 68 kts 271°
2026-05-08 06:15 -37.66144 144.83443 420 ft 130 kts 274°
2026-05-08 06:15 -37.66040 144.82077 527 ft 172 kts 271°
2026-05-08 06:15 -37.65935 144.80600 1127 ft 169 kts 269°
2026-05-08 06:16 -37.65835 144.79137 1719 ft 169 kts 269°
2026-05-08 06:16 -37.65748 144.77588 1953 ft 190 kts 267°
2026-05-08 06:16 -37.65678 144.75822 2226 ft 213 kts 267°
2026-05-08 06:16 -37.65587 144.73875 2695 ft 230 kts 268°
2026-05-08 06:17 -37.65347 144.69667 3967 ft 251 kts 269°
2026-05-08 06:17 -37.65049 144.67479 4684 ft 263 kts 289°
2026-05-08 06:17 -37.63851 144.65721 5493 ft 277 kts 323°
2026-05-08 06:18 -37.62106 144.64670 6295 ft 284 kts 335°
2026-05-08 06:18 -37.60204 144.63832 7017 ft 292 kts 338°
2026-05-08 06:18 -37.58263 144.63048 7745 ft 298 kts 339°
2026-05-08 06:18 -37.56260 144.62376 8424 ft 305 kts 353°
2026-05-08 06:19 -37.54140 144.62804 9112 ft 311 kts 25°
2026-05-08 06:19 -37.52427 144.64371 9807 ft 310 kts 47°
2026-05-08 06:19 -37.50985 144.66417 10290 ft 319 kts 54°
2026-05-08 06:19 -37.49615 144.68710 10588 ft 336 kts 57°
2026-05-08 06:20 -37.48196 144.71170 10786 ft 357 kts 55°
2026-05-08 06:20 -37.46550 144.73665 10989 ft 379 kts 50°
2026-05-08 06:20 -37.44730 144.76147 11166 ft 399 kts 48°
2026-05-08 06:20 -37.42769 144.78723 11614 ft 411 kts 47°
2026-05-08 06:21 -37.40787 144.81310 12270 ft 417 kts 48°
2026-05-08 06:21 -37.38760 144.83963 13053 ft 418 kts 48°
2026-05-08 06:21 -37.36759 144.86592 13771 ft 421 kts 48°
2026-05-08 06:21 -37.34747 144.89244 14404 ft 425 kts 48°
2026-05-08 06:22 -37.32692 144.91950 15051 ft 429 kts 48°
2026-05-08 06:22 -37.30629 144.94661 15701 ft 432 kts 48°
2026-05-08 06:22 -37.28544 144.97395 16300 ft 436 kts 48°
2026-05-08 06:22 -37.26454 145.00140 16921 ft 438 kts 48°
2026-05-08 06:23 -37.24332 145.02922 17533 ft 441 kts 47°
2026-05-08 06:23 -37.22190 145.05728 18100 ft 445 kts 47°
2026-05-08 06:23 -37.20052 145.08521 18688 ft 448 kts 47°
2026-05-08 06:23 -37.17886 145.11345 19271 ft 451 kts 48°
2026-05-08 06:24 -37.15719 145.14169 19780 ft 455 kts 48°
2026-05-08 06:24 -37.13525 145.17032 20299 ft 458 kts 48°
2026-05-08 06:24 -37.11328 145.19897 20860 ft 460 kts 48°
2026-05-08 06:24 -37.09093 145.22807 21431 ft 462 kts 48°
2026-05-08 06:25 -37.06789 145.25613 21908 ft 467 kts 44°
2026-05-08 06:25 -37.04318 145.28255 22380 ft 471 kts 41°
2026-05-08 06:25 -37.01745 145.30864 22861 ft 475 kts 41°
2026-05-08 06:25 -36.99162 145.33472 23355 ft 478 kts 41°
2026-05-08 06:26 -36.96596 145.36093 23859 ft 481 kts 41°
2026-05-08 06:26 -36.93999 145.38773 24376 ft 483 kts 41°
2026-05-08 06:26 -36.91426 145.41437 24822 ft 487 kts 42°
2026-05-08 06:26 -36.88811 145.44136 25227 ft 491 kts 42°
2026-05-08 06:27 -36.86153 145.46876 25614 ft 496 kts 41°
2026-05-08 06:27 -36.83498 145.49611 26023 ft 499 kts 41°
2026-05-08 06:27 -36.80790 145.52394 26469 ft 503 kts 41°
2026-05-08 06:27 -36.78090 145.55164 26944 ft 505 kts 41°
2026-05-08 06:28 -36.75394 145.57932 27396 ft 506 kts 41°
2026-05-08 06:28 -36.72675 145.60719 27859 ft 507 kts 41°
2026-05-08 06:28 -36.69963 145.63493 28397 ft 506 kts 41°
2026-05-08 06:28 -36.67239 145.66281 28899 ft 507 kts 41°
2026-05-08 06:29 -36.64501 145.69076 29399 ft 506 kts 41°
2026-05-08 06:29 -36.61801 145.71831 29895 ft 506 kts 41°
2026-05-08 06:29 -36.59095 145.74594 30360 ft 504 kts 41°
2026-05-08 06:29 -36.56370 145.77373 30755 ft 503 kts 41°
2026-05-08 06:30 -36.53662 145.80122 31110 ft 503 kts 41°
2026-05-08 06:30 -36.50958 145.82869 31497 ft 501 kts 41°
2026-05-08 06:30 -36.48261 145.85608 31876 ft 500 kts 41°
2026-05-08 06:30 -36.45518 145.88394 32246 ft 499 kts 41°
2026-05-08 06:31 -36.42820 145.91133 32612 ft 498 kts 41°
2026-05-08 06:31 -36.40112 145.93878 32956 ft 497 kts 41°
2026-05-08 06:31 -36.37405 145.96620 33168 ft 496 kts 41°
2026-05-08 06:31 -36.34712 145.99347 33174 ft 492 kts 41°
2026-05-08 06:32 -36.29359 146.04758 33175 ft 491 kts 41°
2026-05-08 06:32 -36.24020 146.10147 33177 ft 492 kts 41°
2026-05-08 06:33 -36.18720 146.15483 33177 ft 490 kts 41°
2026-05-08 06:33 -36.13422 146.20799 33177 ft 490 kts 41°
2026-05-08 06:34 -36.08103 146.26138 33176 ft 491 kts 41°
2026-05-08 06:34 -36.02813 146.31430 33181 ft 492 kts 41°
2026-05-08 06:35 -35.97475 146.36768 33183 ft 490 kts 41°
2026-05-08 06:35 -35.92183 146.42047 33194 ft 491 kts 41°
2026-05-08 06:36 -35.86821 146.47380 33174 ft 491 kts 41°
2026-05-08 06:36 -35.81500 146.52673 33178 ft 493 kts 41°
2026-05-08 06:37 -35.76164 146.57971 33183 ft 492 kts 41°
2026-05-08 06:37 -35.70821 146.63263 33183 ft 493 kts 41°
2026-05-08 06:38 -35.65449 146.68567 33188 ft 492 kts 40°
2026-05-08 06:38 -35.60118 146.73833 33187 ft 493 kts 40°
2026-05-08 06:39 -35.54768 146.79105 33187 ft 492 kts 40°
2026-05-08 06:39 -35.49421 146.84363 33187 ft 493 kts 40°
2026-05-08 06:40 -35.44083 146.89580 33187 ft 493 kts 39°
2026-05-08 06:40 -35.38683 146.94775 33188 ft 494 kts 40°
2026-05-08 06:41 -35.33314 147.00021 33192 ft 493 kts 40°
2026-05-08 06:41 -35.27944 147.05276 33189 ft 493 kts 40°
2026-05-08 06:42 -35.22604 147.10480 33201 ft 493 kts 40°
2026-05-08 06:42 -35.17228 147.15709 33202 ft 494 kts 40°
2026-05-08 06:43 -35.11847 147.20935 33195 ft 495 kts 40°
2026-05-08 06:43 -35.06412 147.26202 33208 ft 495 kts 39°
2026-05-08 06:44 -35.01031 147.31415 33195 ft 494 kts 39°
2026-05-08 06:44 -34.95652 147.36610 33204 ft 494 kts 39°
2026-05-08 06:45 -34.90251 147.41820 33204 ft 495 kts 39°
2026-05-08 06:45 -34.84832 147.47041 33182 ft 494 kts 39°
2026-05-08 06:46 -34.79454 147.52211 33185 ft 495 kts 39°
2026-05-08 06:46 -34.74040 147.57399 33195 ft 495 kts 39°
2026-05-08 06:47 -34.68630 147.62585 33187 ft 495 kts 39°
2026-05-08 06:47 -34.63205 147.67773 33189 ft 496 kts 38°
2026-05-08 06:48 -34.57742 147.72990 33186 ft 496 kts 38°
2026-05-08 06:48 -34.52328 147.78151 33181 ft 496 kts 38°
2026-05-08 06:49 -34.46917 147.83296 33195 ft 497 kts 38°
2026-05-08 06:49 -34.41452 147.88490 33186 ft 497 kts 38°
2026-05-08 06:50 -34.36017 147.93640 33189 ft 496 kts 38°
2026-05-08 06:50 -34.30591 147.98778 33189 ft 497 kts 38°
2026-05-08 06:51 -34.25158 148.03909 33192 ft 497 kts 38°
2026-05-08 06:51 -34.19693 148.09064 33186 ft 497 kts 38°
2026-05-08 06:52 -34.14241 148.14198 33186 ft 498 kts 38°
2026-05-08 06:52 -34.08774 148.19342 33184 ft 497 kts 38°
2026-05-08 06:53 -34.03332 148.24448 33182 ft 497 kts 38°
2026-05-08 06:53 -33.97886 148.29550 33180 ft 499 kts 38°
2026-05-08 06:54 -33.92384 148.34694 33178 ft 499 kts 37°
2026-05-08 06:54 -33.86919 148.39798 33184 ft 497 kts 38°
2026-05-08 06:55 -33.81465 148.44884 33178 ft 498 kts 38°
2026-05-08 06:55 -33.75951 148.50018 33181 ft 499 kts 38°
2026-05-08 06:56 -33.70507 148.55074 33187 ft 497 kts 38°
2026-05-08 06:56 -33.65016 148.60172 33179 ft 498 kts 38°
2026-05-08 06:57 -33.59513 148.65263 33183 ft 497 kts 37°
2026-05-08 06:57 -33.54043 148.70331 33178 ft 499 kts 37°
2026-05-08 06:58 -33.48542 148.75401 33175 ft 499 kts 37°
2026-05-08 06:58 -33.43053 148.80463 33178 ft 499 kts 37°
2026-05-08 06:59 -33.37563 148.85515 33167 ft 499 kts 37°
2026-05-08 06:59 -33.32048 148.90581 33160 ft 500 kts 37°
2026-05-08 07:00 -33.26556 148.95616 33153 ft 499 kts 37°
2026-05-08 07:00 -33.21025 149.00682 33151 ft 500 kts 37°
2026-05-08 07:01 -33.15511 149.05719 33147 ft 500 kts 37°
2026-05-08 07:01 -33.09985 149.10768 33152 ft 501 kts 37°
2026-05-08 07:02 -33.04458 149.15804 33159 ft 501 kts 36°
2026-05-08 07:03 -32.94150 149.25171 33144 ft 500 kts 36°
2026-05-08 07:03 -32.88586 149.30225 33154 ft 500 kts 36°
2026-05-08 07:04 -32.83064 149.35216 33148 ft 499 kts 36°
2026-05-08 07:04 -32.77552 149.40199 33139 ft 499 kts 36°
2026-05-08 07:05 -32.72015 149.45210 33147 ft 497 kts 36°
2026-05-08 07:05 -32.66497 149.50168 33141 ft 499 kts 36°
2026-05-08 07:06 -32.61165 149.54973 33151 ft 496 kts 36°
2026-05-08 07:06 -32.55644 149.59882 33148 ft 496 kts 33°
2026-05-08 07:07 -32.49990 149.64531 33160 ft 495 kts 32°
2026-05-08 07:07 -32.44342 149.69251 33135 ft 495 kts 33°
2026-05-08 07:08 -32.38743 149.73979 33138 ft 494 kts 32°
2026-05-08 07:08 -32.33163 149.78671 33142 ft 495 kts 32°
2026-05-08 07:09 -32.27584 149.83350 33151 ft 491 kts 32°
2026-05-08 07:09 -32.21993 149.88029 33148 ft 488 kts 32°
2026-05-08 07:10 -32.16409 149.92696 33153 ft 492 kts 32°
2026-05-08 07:10 -32.10831 149.97350 33151 ft 490 kts 32°
2026-05-08 07:11 -32.05300 150.01971 33158 ft 487 kts 31°
2026-05-08 07:11 -31.99754 150.06578 33159 ft 488 kts 31°
2026-05-08 07:12 -31.94203 150.11194 33148 ft 487 kts 31°
2026-05-08 07:12 -31.88665 150.15790 33153 ft 488 kts 31°
2026-05-08 07:13 -31.83107 150.20390 33149 ft 487 kts 31°
2026-05-08 07:13 -31.77538 150.24995 33147 ft 487 kts 31°
2026-05-08 07:14 -31.71979 150.29555 33154 ft 486 kts 31°
2026-05-08 07:14 -31.66439 150.34125 33150 ft 486 kts 31°
2026-05-08 07:15 -31.60892 150.38692 33147 ft 487 kts 31°
2026-05-08 07:15 -31.55304 150.43278 33149 ft 488 kts 31°
2026-05-08 07:16 -31.49744 150.47842 33158 ft 489 kts 31°
2026-05-08 07:16 -31.44185 150.52402 33147 ft 487 kts 31°
2026-05-08 07:17 -31.38633 150.56949 33158 ft 488 kts 30°
2026-05-08 07:17 -31.33068 150.61499 33146 ft 488 kts 30°
2026-05-08 07:18 -31.27484 150.66058 33150 ft 490 kts 30°
2026-05-08 07:18 -31.21930 150.70581 33144 ft 488 kts 30°
2026-05-08 07:19 -31.16364 150.75108 33150 ft 490 kts 30°
2026-05-08 07:19 -31.10769 150.79663 33159 ft 488 kts 29°
2026-05-08 07:20 -31.05266 150.84308 33157 ft 494 kts 34°
2026-05-08 07:20 -31.00146 150.89664 33172 ft 495 kts 38°
2026-05-08 07:21 -30.95067 150.95067 33157 ft 497 kts 37°
2026-05-08 07:21 -30.89866 151.00456 33157 ft 496 kts 37°
2026-05-08 07:22 -30.84702 151.05826 33164 ft 498 kts 37°
2026-05-08 07:22 -30.79512 151.11200 33131 ft 498 kts 36°
2026-05-08 07:23 -30.74356 151.16562 33134 ft 497 kts 36°
2026-05-08 07:23 -30.69157 151.21907 33142 ft 498 kts 36°
2026-05-08 07:24 -30.63997 151.27240 33137 ft 498 kts 36°
2026-05-08 07:24 -30.58841 151.32559 33127 ft 496 kts 35°
2026-05-08 07:25 -30.53648 151.37918 33139 ft 498 kts 35°
2026-05-08 07:26 -30.45842 151.45917 33153 ft 500 kts 35°
2026-05-08 07:26 -30.40673 151.51222 33143 ft 499 kts 34°
2026-05-08 07:27 -30.35496 151.56531 33155 ft 498 kts 34°
2026-05-08 07:27 -30.30289 151.61818 33133 ft 498 kts 34°
2026-05-08 07:28 -30.25092 151.67104 33122 ft 499 kts 33°
2026-05-08 07:28 -30.19914 151.72389 33119 ft 495 kts 33°
2026-05-08 07:29 -30.14745 151.77647 33126 ft 496 kts 33°
2026-05-08 07:29 -30.09566 151.82912 33101 ft 496 kts 33°
2026-05-08 07:30 -30.04364 151.88197 33086 ft 494 kts 32°
2026-05-08 07:30 -29.99227 151.93402 33110 ft 494 kts 32°
2026-05-08 07:31 -29.94048 151.98639 33104 ft 493 kts 32°
2026-05-08 07:31 -29.88849 152.03888 33117 ft 495 kts 32°
2026-05-08 07:32 -29.83680 152.09105 33114 ft 496 kts 32°
2026-05-08 07:32 -29.78498 152.14317 33111 ft 495 kts 31°
2026-05-08 07:33 -29.73270 152.19548 33122 ft 497 kts 32°
2026-05-08 07:33 -29.68055 152.24799 33104 ft 496 kts 32°
2026-05-08 07:34 -29.62899 152.29976 33108 ft 495 kts 31°
2026-05-08 07:34 -29.57679 152.35194 33102 ft 497 kts 31°
2026-05-08 07:35 -29.52444 152.40442 33093 ft 497 kts 31°
2026-05-08 07:35 -29.47235 152.45641 33107 ft 496 kts 31°
2026-05-08 07:36 -29.42068 152.50797 33094 ft 495 kts 31°
2026-05-08 07:36 -29.36845 152.55991 33096 ft 497 kts 31°
2026-05-08 07:37 -29.31591 152.61223 33089 ft 501 kts 30°
2026-05-08 07:37 -29.26335 152.66441 33070 ft 500 kts 30°
2026-05-08 07:38 -29.21084 152.71654 33046 ft 498 kts 30°
2026-05-08 07:38 -29.18484 152.74242 32810 ft 487 kts 30°
2026-05-08 07:38 -29.15931 152.76756 32178 ft 485 kts 29°
2026-05-08 07:38 -29.13365 152.79248 31264 ft 491 kts 30°
2026-05-08 07:39 -29.10757 152.81776 30438 ft 494 kts 31°
2026-05-08 07:39 -29.08173 152.84315 29825 ft 490 kts 32°
2026-05-08 07:39 -29.05608 152.86865 29170 ft 486 kts 33°
2026-05-08 07:39 -29.03067 152.89401 28599 ft 481 kts 33°
2026-05-08 07:40 -29.00568 152.91882 28004 ft 476 kts 33°
2026-05-08 07:40 -28.98075 152.94339 27438 ft 471 kts 33°
2026-05-08 07:40 -28.95603 152.96768 26852 ft 466 kts 33°
2026-05-08 07:40 -28.93143 152.99193 26292 ft 462 kts 34°
2026-05-08 07:41 -28.90745 153.01546 25730 ft 457 kts 34°
2026-05-08 07:41 -28.88342 153.03889 25184 ft 450 kts 33°
2026-05-08 07:41 -28.85682 153.05617 24622 ft 426 kts 12°
2026-05-08 07:41 -28.82857 153.06389 24207 ft 409 kts
2026-05-08 07:42 -28.80050 153.06900 23648 ft 418 kts
2026-05-08 07:42 -28.77129 153.07483 23136 ft 429 kts
2026-05-08 07:42 -28.74197 153.08177 22586 ft 434 kts
2026-05-08 07:42 -28.71270 153.08937 22022 ft 430 kts
2026-05-08 07:43 -28.68364 153.09709 21472 ft 425 kts
2026-05-08 07:43 -28.65487 153.10467 20939 ft 419 kts
2026-05-08 07:43 -28.62686 153.11195 20407 ft 414 kts
2026-05-08 07:43 -28.59872 153.11920 19891 ft 409 kts
2026-05-08 07:44 -28.57131 153.12628 19363 ft 405 kts
2026-05-08 07:44 -28.54378 153.13338 18838 ft 400 kts
2026-05-08 07:44 -28.51667 153.14031 18340 ft 395 kts
2026-05-08 07:44 -28.49010 153.14712 17817 ft 392 kts
2026-05-08 07:45 -28.46387 153.15389 17327 ft 387 kts
2026-05-08 07:45 -28.43743 153.16069 16818 ft 383 kts
2026-05-08 07:45 -28.41177 153.16731 16329 ft 380 kts
2026-05-08 07:45 -28.38606 153.17392 15825 ft 376 kts
2026-05-08 07:46 -28.36038 153.18050 15352 ft 380 kts
2026-05-08 07:46 -28.33399 153.18726 14843 ft 390 kts
2026-05-08 07:46 -28.30750 153.19405 14326 ft 391 kts
2026-05-08 07:46 -28.28118 153.20081 13806 ft 387 kts
2026-05-08 07:47 -28.25502 153.20754 13300 ft 382 kts
2026-05-08 07:47 -28.22961 153.21405 13088 ft 369 kts
2026-05-08 07:47 -28.20443 153.22002 13076 ft 371 kts
2026-05-08 07:47 -28.17846 153.22336 13072 ft 377 kts
2026-05-08 07:48 -28.15255 153.22531 12908 ft 371 kts 360°
2026-05-08 07:48 -28.12703 153.22688 12417 ft 367 kts 360°
2026-05-08 07:48 -28.10186 153.22839 12101 ft 356 kts 360°
2026-05-08 07:48 -28.07762 153.22996 11791 ft 334 kts
2026-05-08 07:49 -28.05510 153.23151 11411 ft 320 kts 360°
2026-05-08 07:49 -28.03319 153.23299 11038 ft 309 kts 360°
2026-05-08 07:49 -28.01167 153.23441 10689 ft 305 kts 359°
2026-05-08 07:49 -27.99052 153.23583 10379 ft 300 kts 359°
2026-05-08 07:50 -27.96993 153.23721 10062 ft 296 kts 359°
2026-05-08 07:50 -27.94931 153.23857 9709 ft 293 kts 360°
2026-05-08 07:50 -27.92904 153.23988 9371 ft 290 kts 359°
2026-05-08 07:50 -27.90889 153.24123 9020 ft 287 kts
2026-05-08 07:51 -27.88910 153.24257 8671 ft 285 kts
2026-05-08 07:51 -27.86925 153.24387 8307 ft 283 kts
2026-05-08 07:51 -27.85010 153.24179 7977 ft 270 kts 333°
2026-05-08 07:51 -27.83399 153.23108 7677 ft 266 kts 320°
2026-05-08 07:52 -27.81956 153.21886 7492 ft 257 kts 319°
2026-05-08 07:52 -27.80524 153.20665 7197 ft 254 kts 319°
2026-05-08 07:52 -27.79122 153.19473 6832 ft 252 kts 315°
2026-05-08 07:52 -27.77907 153.18069 6454 ft 249 kts 307°
2026-05-08 07:53 -27.76810 153.16585 6244 ft 241 kts 305°
2026-05-08 07:53 -27.75785 153.15141 6050 ft 233 kts 304°
2026-05-08 07:53 -27.74785 153.13719 5766 ft 230 kts 305°
2026-05-08 07:53 -27.73795 153.12305 5465 ft 228 kts 305°
2026-05-08 07:54 -27.72825 153.10908 5151 ft 226 kts 305°
2026-05-08 07:54 -27.71870 153.09531 4970 ft 214 kts 305°
2026-05-08 07:54 -27.70973 153.08243 4719 ft 205 kts 305°
2026-05-08 07:54 -27.70107 153.06995 4505 ft 195 kts 306°
2026-05-08 07:55 -27.69287 153.05808 4199 ft 190 kts 306°
2026-05-08 07:55 -27.68491 153.04651 3870 ft 188 kts 307°
2026-05-08 07:55 -27.67724 153.03453 3537 ft 185 kts 303°
2026-05-08 07:55 -27.67032 153.02261 3222 ft 181 kts 303°
2026-05-08 07:56 -27.66367 153.01109 3040 ft 168 kts 303°
2026-05-08 07:56 -27.65564 153.00259 2897 ft 153 kts 338°
2026-05-08 07:56 -27.64529 152.99930 2983 ft 161 kts 344°
2026-05-08 07:56 -27.63442 152.99600 2978 ft 159 kts 342°
2026-05-08 07:57 -27.62382 152.99478 2922 ft 154 kts 14°
2026-05-08 07:57 -27.61396 152.99911 2963 ft 151 kts 19°
2026-05-08 07:57 -27.60418 153.00348 2952 ft 148 kts 21°
2026-05-08 07:57 -27.59486 153.00873 2954 ft 148 kts 25°
2026-05-08 07:58 -27.58568 153.01402 2959 ft 148 kts 25°
2026-05-08 07:58 -27.57642 153.01935 2971 ft 150 kts 24°
2026-05-08 07:58 -27.56710 153.02467 2972 ft 151 kts 25°
2026-05-08 07:58 -27.55774 153.03003 2967 ft 151 kts 25°
2026-05-08 07:59 -27.54828 153.03543 2959 ft 152 kts 24°
2026-05-08 07:59 -27.53882 153.04083 2950 ft 153 kts 24°
2026-05-08 07:59 -27.52913 153.04633 2743 ft 153 kts 24°
2026-05-08 07:59 -27.51976 153.05170 2546 ft 151 kts 24°
2026-05-08 08:00 -27.51037 153.05705 2352 ft 150 kts 25°
2026-05-08 08:00 -27.50111 153.06233 2160 ft 148 kts 25°
2026-05-08 08:00 -27.49198 153.06755 1957 ft 148 kts 25°
2026-05-08 08:00 -27.48294 153.07269 1773 ft 145 kts 25°
2026-05-08 08:01 -27.47388 153.07797 1576 ft 145 kts 25°
2026-05-08 08:01 -27.46483 153.08295 1381 ft 146 kts 25°
2026-05-08 08:01 -27.45572 153.08786 1187 ft 145 kts 25°
2026-05-08 08:01 -27.44662 153.09308 982 ft 144 kts 27°
2026-05-08 08:02 -27.43778 153.09825 800 ft 143 kts 26°
2026-05-08 08:02 -27.42877 153.10310 629 ft 143 kts 26°
2026-05-08 08:02 -27.41986 153.10838 389 ft 142 kts 27°
2026-05-08 08:02 -27.41116 153.11336 197 ft 141 kts 28°
2026-05-08 08:03 -27.40233 153.11847 47 ft 141 kts 28°
2026-05-08 08:03 -27.39452 153.12297 26 ft 108 kts 28°
2026-05-08 08:03 -27.38896 153.12616 25 ft 72 kts 26°
2026-05-08 08:03 -27.38541 153.12826 25 ft 44 kts 25°
2026-05-08 08:04 -27.38261 153.12979 25 ft 38 kts 19°
2026-05-08 08:04 -27.38101 153.13013 25 ft 12 kts 338°
2026-05-08 08:04 -27.38056 153.12949 25 ft 8 kts 296°
2026-05-08 08:04 -27.38038 153.12894 25 ft 6 kts 267°
2026-05-08 08:05 -27.38066 153.12860 25 ft 5 kts 204°
2026-05-08 08:05 -27.38101 153.12842 25 ft 5 kts 206°
2026-05-08 08:05 -27.38138 153.12819 25 ft 6 kts 209°
2026-05-08 08:05 -27.38191 153.12787 25 ft 10 kts 208°
2026-05-08 08:06 -27.38273 153.12743 25 ft 15 kts 206°
2026-05-08 08:06 -27.38366 153.12674 25 ft 15 kts 245°
2026-05-08 08:06 -27.38340 153.12569 25 ft 14 kts 319°
2026-05-08 08:06 -27.38287 153.12489 25 ft 11 kts 298°
2026-05-08 08:07 -27.38269 153.12419 25 ft 8 kts 271°
2026-05-08 08:07 -27.38276 153.12361 25 ft 6 kts 260°
2026-05-08 08:07 -27.38284 153.12315 25 ft 4 kts 259°
2026-05-08 08:07 -27.38287 153.12293 25 ft 0 kts 259°
2026-05-08 08:08 -27.38288 153.12288 25 ft 0 kts 259°